sat.trackr.live / text

‹ back to catalog

YAOGAN-8

NORAD 36121 · 2009-072A

PAYLOAD ACTIVE UNKNOWN

§ Identity

Operator
Country
PRC
Launch date
2009-12-15
Launch site
TAISC
Launch vehicle
Mass (kg)
RCS (m²)
3.03

External: N2YO · Heavens-Above · Gunter

§ Orbital elements

Epoch: 2026-05-25T02:44:32.318016Z

Period
110.34 min
Inclination
100.2212°
Eccentricity
0.0021389
Mean motion
13.05082383 rev/d
Perigee alt
1,225.9 km
Apogee alt
1,258.5 km
Semi-major
7,620.4 km
B*
-3.3026e-5
RAAN
30.8435°
Arg perigee
17.8699°
Mean anomaly
342.3156°
Rev number
78,566

§ Raw data

YAOGAN-81 36121U 09072A   26145.11426294 -.00000052  00000+0 -33026-4 0  99942 36121 100.2212  30.8435 0021389  17.8699 342.3156 13.05082383785668

JSON: /api/v1/satellites/36121 · /tle

For live sub-satellite position, see the globe view (requires WebGL).

§ Visibility from observer

Set your observer location to see the next 7 days of passes ≥ 10°. The values pass through the URL so the page stays shareable.

No JS? Fill the form by hand. The geolocation button needs JavaScript.